FW2047 Weather Reports


time (UTC)temp
C
wind
direction
speed
KPH
gust
KPH
rain 1hr
cm
rain 24hr
cm
rain mn
cm
humidity
%
barometer
mb
20260507051511 1 347 1.6 3.2 0.00 0.51 0.00 97 1012.4
20260507050010 1 347 0.0 3.2 0.00 0.51 0.00 96 1012.3
20260507044507 1 347 0.0 3.2 0.00 0.71 0.00 96 1012.2
20260507043005 1 347 1.6 4.8 0.00 0.71 0.00 96 1012.0
20260507041510 1 350 1.6 3.2 0.00 0.71 0.00 96 1011.8
20260507040002 1 350 0.0 1.6 0.00 0.71 0.00 96 1011.7
20260507034506 1 350 0.0 1.6 0.00 0.71 0.00 96 1011.6
20260507033002 1 350 1.6 6.4 0.00 0.71 0.00 96 1011.6
20260507031605 1 350 1.6 3.2 0.00 0.71 0.00 96 1011.5
20260507030159 1 350 1.6 3.2 0.00 0.71 0.00 96 1011.5
20260507024604 1 350 0.0 1.6 0.00 0.71 0.00 96 1011.6
20260507023110 1 350 0.0 3.2 0.00 0.71 0.00 96 1011.5
20260507021555 1 350 1.6 3.2 0.00 0.71 0.00 96 1011.5
20260507020053 2 350 0.0 1.6 0.00 0.71 0.00 96 1011.4
20260507014604 2 350 0.0 1.6 0.00 0.71 0.00 96 1011.4
20260507013110 2 350 1.6 8.0 0.00 0.71 0.00 96 1011.3
20260507011550 2 350 1.6 6.4 0.00 0.71 0.00 96 1011.3
20260507010049 2 350 3.2 6.4 0.00 0.71 0.00 96 1011.3
20260507004549 2 350 1.6 8.0 0.00 0.71 0.00 96 1011.3
20260507003047 2 350 3.2 8.0 0.00 0.71 0.00 96 1011.2
20260507001606 2 350 1.6 4.8 0.00 0.71 0.00 96 1011.2
20260507000048 2 350 0.0 6.4 0.00 0.71 0.00 96 1011.1
20260506234545 2 350 0.0 6.4 0.00 0.76 0.00 96 1011.1
20260506233046 2 350 1.6 3.2 0.00 0.76 0.00 96 1011.1
20260506231546 2 350 1.6 3.2 0.00 0.76 0.00 96 1011.1
20260506230039 2 350 0.0 6.4 0.00 0.76 0.00 96 1011.0
20260506224537 2 350 0.0 3.2 0.00 0.79 0.00 96 1011.0
20260506223036 2 350 1.6 3.2 0.00 0.79 0.00 96 1011.0
20260506221535 2 350 3.2 4.8 0.00 0.79 0.00 96 1011.0
20260506220031 2 350 0.0 3.2 0.00 0.79 0.00 96 1010.9
20260506214531 2 350 1.6 6.4 0.00 0.79 0.79 96 1010.9
20260506213030 2 350 0.0 3.2 0.00 0.79 0.79 96 1010.8
20260506211529 2 350 1.6 6.4 0.00 0.79 0.79 96 1010.8
20260506210036 2 350 0.0 3.2 0.00 0.79 0.79 95 1010.7
20260506204528 2 351 0.0 6.4 0.00 0.79 0.79 96 1010.7
20260506203031 2 350 0.0 6.4 0.00 0.79 0.79 95 1010.7
20260506201527 2 288 1.6 3.2 0.00 0.79 0.79 96 1010.4
20260506200026 2 288 0.0 6.4 0.00 0.79 0.79 96 1010.2
20260506194525 2 288 4.8 8.0 0.00 0.79 0.79 95 1010.1
20260506193023 2 279 3.2 8.0 0.00 0.79 0.79 95 1009.8
20260506191521 2 279 1.6 6.4 0.00 0.79 0.79 95 1009.5
20260506190020 3 279 0.0 3.2 0.00 0.79 0.79 95 1009.4
20260506184520 3 279 3.2 9.7 0.00 0.81 0.79 95 1009.2
20260506183016 3 271 4.8 9.7 0.00 0.81 0.79 95 1008.9
20260506181516 3 262 1.6 6.4 0.00 0.81 0.79 94 1008.6
20260506180020 3 261 4.8 8.0 0.00 0.81 0.79 94 1008.6
20260506174510 4 261 3.2 6.4 0.00 0.81 0.79 93 1008.4
20260506173010 4 261 1.6 4.8 0.00 0.81 0.79 93 1008.4
20260506171509 5 261 0.0 8.0 0.00 0.81 0.79 92 1008.1
20260506170011 5 55 0.0 6.4 0.00 0.81 0.79 91 1008.1
20260506164508 5 55 0.0 6.4 0.00 0.81 0.79 90 1008.1
20260506163017 5 55 0.0 1.6 0.03 0.81 0.79 92 1008.2
20260506161514 5 55 0.0 6.4 0.03 0.81 0.79 93 1008.1
20260506160009 6 56 3.2 6.4 0.05 0.81 0.79 94 1008.3
20260506154505 6 56 0.0 6.4 0.05 0.81 0.79 94 1008.4
20260506153004 6 59 0.0 6.4 0.03 0.79 0.76 94 1008.3
20260506151503 6 55 1.6 6.4 0.03 0.79 0.76 91 1008.2
20260506150005 6 323 1.6 6.4 0.00 0.79 0.71 92 1008.1
20260506144501 6 123 0.0 3.2 0.00 0.79 0.71 92 1007.9
20260506143001 6 123 1.6 4.8 0.00 0.79 0.71 92 1007.6
20260506141501 7 130 1.6 9.7 0.00 0.79 0.71 89 1007.6
20260506140101 7 88 0.0 8.0 0.00 0.79 0.71 86 1007.5
20260506140001 7 88 0.0 8.0 0.00 0.79 0.71 86 1007.5
20260506134619 7 175 1.6 8.0 0.03 0.79 0.71 88 1007.2
20260506133059 7 188 0.0 9.7 0.03 0.79 0.71 90 1007.4
20260506131611 8 173 4.8 11.3 0.05 0.79 0.71 90 1007.2
20260506130058 7 158 4.8 8.0 0.10 0.79 0.71 94 1007.1
20260506124557 6 96 0.0 16.1 0.15 0.79 0.71 90 1007.2
20260506123057 6 194 12.9 35.4 0.18 0.79 0.71 87 1006.8
20260506121605 5 254 12.9 29.0 0.18 0.76 0.71 88 1006.9
20260506120055 5 281 12.9 43.5 0.13 0.71 0.64 90 1006.7
20260506114554 5 254 12.9 29.0 0.05 0.66 0.56 85 1006.6
20260506113051 7 289 6.4 16.1 0.03 0.64 0.53 88 1006.3
20260506111608 8 175 1.6 9.7 0.00 0.61 0.51 91 1006.1
20260506110052 7 290 0.0 8.0 0.00 0.61 0.51 91 1006.0
20260506104549 7 96 0.0 3.2 0.00 0.61 0.51 94 1006.2
20260506103049 7 92 3.2 8.0 0.00 0.61 0.51 93 1006.4
20260506101548 8 48 4.8 11.3 0.00 0.61 0.51 94 1006.1
20260506100045 7 90 0.0 6.4 0.00 0.61 0.51 95 1006.0
20260506094543 6 175 3.2 8.0 0.00 0.66 0.51 96 1006.1
20260506093051 6 134 0.0 3.2 0.00 0.66 0.51 96 1006.0
20260506091542 6 175 0.0 6.4 0.00 0.66 0.51 96 1005.9
20260506090041 6 59 0.0 12.9 0.00 0.66 0.51 96 1005.7
20260506084540 7 71 3.2 11.3 0.03 0.66 0.51 97 1005.5
20260506083037 6 78 0.0 6.4 0.05 0.66 0.51 96 1005.3
20260506081543 5 77 1.6 4.8 0.05 0.66 0.51 96 1005.4
20260506073035 5 290 0.0 3.2 0.13 0.61 0.48 96 1004.9
20260506071534 5 300 0.0 3.2 0.10 0.61 0.46 96 1004.8
20260506061535 5 173 0.0 6.4 0.05 0.51 0.36 97 1004.3